Terminal Aerodrome Forecast
Issued by NWS Denver/Boulder, CO

Home | Current Version | Previous Version | Text Only | Print | Product List | Glossary On
Versions: 1 2 3 4 5 6 7 8 9 10 11 12 13 14 15 16 17 18 19 20 21 22 23 24 25 26 27 28 29 30 31 32 33 34 35 36 37 38 39 40 41 42 43 44 45 46 47 48 49 50
000
FTUS45 KBOU 251942 AAC
TAFDEN
TAF AMD
KDEN 251942Z 2520/2624 01010KT P6SM VCSH SCT004 BKN008 OVC020
      TEMPO 2520/2522 1SM -SHSN BKN004
     FM252200 07011KT P6SM VCSH SCT015 BKN040
      TEMPO 2522/2601 2SM -SN BR BKN015
     FM260100 12007KT P6SM SCT040 BKN080
     FM260300 17007KT P6SM SCT050 BKN080
     FM260600 20010KT P6SM FEW050 SCT100
     FM261800 35012KT P6SM SCT060 BKN090=

USA.gov is the U.S. government's official web portal to all federal, state and local government web resources and services.